Regional Weather Roundup
Issued by NWS

Home | Current Version | Previous Version | Text Only | Print | Product List | Glossary On
Versions: 1 2 3 4 5 6 7 8 9 10 11 12 13 14 15 16 17 18 19 20 21 22 23 24 25 26 27 28 29 30 31 32 33 34 35 36 37 38 39 40 41 42 43 44 45 46 47 48 49 50
259
ASUS45 KTFX 291910
RWRMT
MONTANA REGIONAL WEATHER ROUNDUP
NATIONAL WEATHER SERVICE GREAT FALLS MT
100 PM MDT FRI JUL 29 2016

NOTE: "FAIR" INDICATES FEW OR NO CLOUDS BELOW 12000 FEET WITH NO
SIGNIFICANT WEATHER AND/OR OBSTRUCTIONS TO VISIBILITY.

MTZ001>007-043-292000-
WEST OF THE DIVIDE

CITY           SKY/WX    TMP DP  RH WIND       PRES   REMARKS
KALISPELL      SUNNY     84  51  31 VRB7      30.02F
MISSOULA       SUNNY     85  48  27 S5        30.03F
BUTTE          SUNNY     79  38  22 SW5       30.16F
MULLAN PASS    PTSUNNY   72  44  36 CALM      30.22S
ANACONDA         N/A     81  45  28 N7        30.12F
DEER LODGE       N/A     82  43  24 CALM      30.14F
EUREKA           N/A     82  50  32 CALM      30.02F
HAMILTON         N/A     81  50  34 CALM      30.05F
LIBBY            N/A     88  48  25 CALM      29.99F
RONAN            N/A     84  55  36 S5        30.08F
$$

MTZ008-052>055-292000-
SOUTHWEST MONTANA

CITY           SKY/WX    TMP DP  RH WIND       PRES   REMARKS
BOZEMAN        SUNNY     81  53  37 N6        30.11F
DILLON         SUNNY     80  48  32 NE7       30.13F
W YELLOWSTONE  SUNNY     79  36  21 SW12      30.21F
ENNIS          SUNNY     82  41  23 CALM      30.18F
THREE FORKS      N/A     81  -5   3 NE3       30.08F
TWIN BRIDGES     N/A     83  44  25 W7        30.09F
$$

MTZ009-010-012-014-046-048-049-054-292000-
EAST SLOPES AND CENTRAL MONTANA

CITY           SKY/WX    TMP DP  RH WIND       PRES   REMARKS
CUT BANK       SUNNY     76  52  43 VRB5      30.09F
GREAT FALLS    SUNNY     79  50  36 VRB3      30.08F
MALMSTROM AFB  SUNNY     79  53  40 NE6G18    30.08F
HELENA         SUNNY     84  50  30 VRB3      30.06F
CHOTEAU          N/A     81  52  36 E8        30.11F
$$

MTZ011-013-016-021-045-047-050-051-292000-
NORTH CENTRAL MONTANA

CITY           SKY/WX    TMP DP  RH WIND       PRES   REMARKS
HAVRE          SUNNY     81  56  42 N8        30.03F
LEWISTOWN      SUNNY     77  52  41 N7        30.11
N BAR RANCH    PTSUNNY   79  48  34 NW8       30.13F
CHINOOK          N/A     79  57  47 SW8       30.02F
$$

MTZ017>020-022>027-061-062-292000-
NORTHEAST MONTANA

CITY           SKY/WX    TMP DP  RH WIND       PRES   REMARKS
GLASGOW        CLOUDY    77  55  46 S9        30.02F
JORDAN           N/A     79  56  45 VRB7      30.03F
SIDNEY         MOSUNNY   75  53  46 CALM      30.05F
WOLF POINT     MOSUNNY   78  50  37 CALM      30.03F
PLENTYWOOD       N/A     79  55  44 S5        30.04F
POPLAR           N/A     79  52  38 CALM      30.04F
$$

MTZ028>42-056>058-292000-
SOUTHCENTRAL AND SOUTHEAST MONTANA

CITY           SKY/WX    TMP DP  RH WIND       PRES   REMARKS
BAKER          MOSUNNY   74  58  57 S3        30.08F
BILLINGS       MOSUNNY   83  49  30 NE9       30.06F
LIVINGSTON     SUNNY     83  46  27 NW7       30.10F
MILES CITY     PTSUNNY   80  53  39 MISG      30.04F
FORSYTH          N/A     82  54  36 NW6       30.03F
LAUREL           N/A     81  52  36 E5        30.05F
ROUNDUP          N/A     81  51  35 CALM      29.98F
$$

REGIONAL REPORTS...DAKOTAS

CITY           SKY/WX    TMP DP  RH WIND       PRES   REMARKS
WILLISTON      SUNNY     80  50  34 S6        30.05F
MINOT          LGT RAIN  73  63  70 SE12      30.04F
DICKINSON      CLOUDY    72  56  57 S8        30.06F
BEACH            N/A     72  59  64 S6        30.11F
CROSBY           N/A     75  54  46 SW5       30.07F
WATFORD CITY     N/A    N/A N/A N/A MISG        N/A
BISMARCK       PTSUNNY   79  59  50 CALM      30.06F
GRAND FORKS    CLOUDY    78  52  40 CALM      30.06S
FARGO          MOSUNNY   79  57  46 MISG      30.06F
BUFFALO SD       N/A     79  56  45 S8        30.02F
RAPID CITY     PTSUNNY   78  55  44 VRB7      30.08F
$$

REGIONAL REPORTS...WYOMING/IDAHO/WASHINGTON

CITY           SKY/WX    TMP DP  RH WIND       PRES   REMARKS
GILLETTE       SUNNY     83  49  30 VRB6      30.10F
SHERIDAN       SUNNY     85  46  25 MISG      30.08F
BUFFALO WY     SUNNY     80  44  27 VRB3      30.14F
CODY           SUNNY     81  52  36 N12G17    30.11F
YELLOWSTONE LA   N/A     69  48  47 VRB3      30.31F
IDAHO FALLS    SUNNY     83  37  19 S6        30.09F
SALMON         SUNNY     82  45  26 NW5       30.03F
BOISE          SUNNY     91  46  21 W9        29.97F
SPOKANE        MOSUNNY   91  50  24 NE6       29.96F
$$

REGIONAL REPORTS...ALBERTA

CITY           SKY/WX    TMP DP  RH WIND       PRES   REMARKS
EDMONTON       MOSUNNY   79  59  50 W6        29.94F
CALGARY        MOSUNNY   77  52  41 S7        30.04F
LETHBRIDGE     MOSUNNY   77  55  47 E3        30.05F
MEDICINE HAT   MOSUNNY   81  57  44 NW5       30.02F
WATERTON GATE    N/A     77  54  44 NE6         N/A
CARDSTON         N/A     79  54  41 S5          N/A
MILK RIVER       N/A     77  54  44 NW2         N/A
ONEFOUR          N/A     79  46  31 NW10G18     N/A
$$

REGIONAL REPORTS...SASKATCHEWAN

CITY           SKY/WX    TMP DP  RH WIND       PRES   REMARKS
SWIFT CURRENT  PTSUNNY   72  61  68 W8        30.02F
REGINA         PTSUNNY   77  64  65 W10       29.99F
SASKATOON      PTSUNNY   72  63  73 W6        29.99F
CYPRESS HILLS    N/A     70  55  60 NW6         N/A
VAL MARIE        N/A     73  57  56 S7          N/A
ROCKGLEN         N/A     72  57  60 S5          N/A
ASSINIBOIA       N/A     79  61  53 S5          N/A
$$




USA.gov is the U.S. government's official web portal to all federal, state and local government web resources and services.